Simultaneous Nadir Overpasses (SNOs) Predictions

Prediction of SNOs between GOES-15 and METOP-C Satellite Orbit:

Table of predicted SNOs for the next 14.0 days since TLE Epoch: 7/12/2022
Index Date Time (GOES-15) GOES-15 Lat,Lon METOP-C Lat,Lon Distance(km) Time Diff (sec)
1 07/12/2022 17:51:40 -0.16,-128.44 -0.79,-125.67 316.24 80
2 07/14/2022 06:13:19 0.13,-128.38 -0.31,-130.25 213.77 80
3 07/15/2022 05:50:00 0.16,-128.36 0.87,-125.27 352.79 80
4 07/16/2022 18:11:32 -0.12,-128.38 0.19,-129.83 164.21 80
5 07/17/2022 17:48:12 -0.16,-128.37 -0.93,-124.83 402.74 80
6 07/19/2022 06:09:50 0.12,-128.31 -0.15,-129.42 126.72 80
7 07/20/2022 05:46:32 0.15,-128.29 1.03,-124.44 439.87 80
8 07/21/2022 18:08:03 -0.10,-128.31 0.04,-128.99 77.61 80
9 07/22/2022 17:44:44 -0.13,-128.29 -1.08,-124.00 489.00 80
10 07/24/2022 06:06:22 0.09,-128.22 0.02,-128.58 40.78 80
